This is the latest recevied weather packets stored in our database for station/object KB4MOX. If no packets are shown the sender has not sent any weather packets the latest 10 day(s).
| Time | Temp. | Humidity | Pressure | Rain* | Wind** | Luminosity | Snow |
|---|---|---|---|---|---|---|---|
| 1787534674 | 26.67° C | 73% | 1014.6 hPa | 0 mm | - | 0 W/m² | - |
| 1787534372 | 26.67° C | 72% | 1014.6 hPa | 0 mm | - | 0 W/m² | - |
| 1787534068 | 26.67° C | 72% | 1014.4 hPa | 0 mm | - | 0 W/m² | - |
| 1787533764 | 26.67° C | 72% | 1014.3 hPa | 0 mm | - | 0 W/m² | - |
| 1787533460 | 27.22° C | 70% | 1014.3 hPa | 0 mm | - | 0 W/m² | - |
| 1787533156 | 27.22° C | 71% | 1014.2 hPa | 0 mm | - | 0 W/m² | - |
| 1787532852 | 27.22° C | 71% | 1014.3 hPa | 0 mm | - | 0 W/m² | - |
| 1787532552 | 27.22° C | 70% | 1014.1 hPa | 0 mm | - | 0 W/m² | - |
| 1787532248 | 27.78° C | 69% | 1014.2 hPa | 0 mm | - | 0 W/m² | - |
| 1787531943 | 27.78° C | 69% | 1013.9 hPa | 0 mm | - | 0 W/m² | - |
| 1787531640 | 27.78° C | 68% | 1014.1 hPa | 0 mm | - | 0 W/m² | - |
| 1787531335 | 28.33° C | 67% | 1013.8 hPa | 0 mm | - | 0 W/m² | - |
| 1787531030 | 28.33° C | 66% | 1013.9 hPa | 0 mm | - | 0 W/m² | - |
| 1787530725 | 28.89° C | 66% | 1013.9 hPa | 0 mm | - | 0 W/m² | - |
| 1787530415 | 28.89° C | 64% | 1013.9 hPa | 0 mm | - | 1 W/m² | - |
| 1787530110 | 29.44° C | 63% | 1013.6 hPa | 0 mm | - | 2 W/m² | - |
| 1787529806 | 30° C | 62% | 1013.8 hPa | 0 mm | - | 4 W/m² | - |
| 1787529501 | 30° C | 61% | 1013.7 hPa | 0 mm | - | 7 W/m² | - |
| 1787529195 | 30° C | 60% | 1013.6 hPa | 0 mm | - | 10 W/m² | - |
| 1787528890 | 30.56° C | 60% | 1013.6 hPa | 0 mm | - | 14 W/m² | - |
| 1787528586 | 31.11° C | 58% | 1013.4 hPa | 0 mm | - | 18 W/m² | - |
| 1787528286 | 31.67° C | 57% | 1013.5 hPa | 0 mm | - | 22 W/m² | - |
| 1787527983 | 32.22° C | 55% | 1013.6 hPa | 0 mm | - | 29 W/m² | - |
| 1787527678 | 32.78° C | 53% | 1013.5 hPa | 0 mm | - | 37 W/m² | - |
| 1787527375 | 33.33° C | 52% | 1013.5 hPa | 0 mm | - | 45 W/m² | - |
* Rain latest hour (hover to see other rain measurements)
** Current wind speed in m/s (hover to see current wind gust speed)